timestamp,wind_dir_avg,wind_spd_avg,wind_spd_max_dir,wind_spd_gust,battery_voltage,lat,long
2020-12-22 00:04:01+00:00,169.0,15.53,161.0,18.87,12.57,47.59359,-54.27349
2020-12-22 00:14:01+00:00,164.0,14.18,163.0,17.57,12.49,47.59359,-54.27349
2020-12-22 00:24:01+00:00,163.0,13.58,158.0,15.83,12.49,47.59359,-54.27349
2020-12-22 00:34:01+00:00,162.0,14.64,159.0,17.01,12.49,47.59359,-54.27349
2020-12-22 00:44:01+00:00,162.0,14.67,162.0,15.96,12.49,47.59359,-54.27349
2020-12-22 00:54:01+00:00,163.0,13.46,163.0,15.35,12.49,47.59359,-54.27349
2020-12-22 01:04:01+00:00,165.0,13.07,162.0,15.14,12.49,47.59359,-54.27349
2020-12-22 01:14:01+00:00,163.0,14.19,168.0,16.63,12.49,47.59359,-54.27349
2020-12-22 01:24:01+00:00,165.0,13.04,170.0,14.51,12.49,47.59359,-54.27349
2020-12-22 01:34:01+00:00,161.0,14.95,161.0,17.1,12.49,47.59359,-54.27349
2020-12-22 01:44:01+00:00,164.0,14.79,167.0,18.22,12.49,47.59359,-54.27349
2020-12-22 01:54:01+00:00,162.0,15.15,166.0,17.43,12.49,47.59359,-54.27349
2020-12-22 02:04:01+00:00,165.0,14.5,162.0,17.24,12.49,47.59359,-54.27349
2020-12-22 02:14:01+00:00,164.0,13.46,164.0,16.18,12.41,47.59359,-54.27349
2020-12-22 02:24:01+00:00,170.0,14.07,177.0,17.04,12.41,47.59359,-54.27349
2020-12-22 02:34:01+00:00,163.0,16.54,160.0,18.77,12.41,47.59359,-54.27349
2020-12-22 02:44:01+00:00,165.0,15.1,168.0,18.36,12.41,47.59359,-54.27349
2020-12-22 02:54:01+00:00,163.0,16.15,163.0,20.4,12.41,47.59359,-54.27349
2020-12-22 03:04:01+00:00,163.0,15.94,168.0,18.07,12.41,47.59359,-54.27349
2020-12-22 03:14:01+00:00,161.0,16.39,165.0,19.58,12.41,47.59359,-54.27349
2020-12-22 03:24:01+00:00,161.0,16.03,167.0,19.09,12.41,47.59359,-54.27349
2020-12-22 03:34:01+00:00,163.0,15.73,166.0,18.58,12.41,47.59359,-54.27349
2020-12-22 03:44:01+00:00,165.0,15.91,164.0,18.59,12.41,47.59359,-54.27349
2020-12-22 03:54:01+00:00,164.0,16.82,165.0,20.14,12.41,47.59359,-54.27349
2020-12-22 04:04:01+00:00,164.0,16.51,165.0,18.92,12.41,47.59359,-54.27349
2020-12-22 04:14:01+00:00,163.0,18.72,168.0,22.32,12.41,47.59359,-54.27349
2020-12-22 04:24:01+00:00,163.0,16.28,169.0,18.76,12.41,47.59359,-54.27349
2020-12-22 04:34:01+00:00,161.0,18.01,169.0,21.65,12.41,47.59359,-54.27349
2020-12-22 04:44:01+00:00,163.0,17.85,166.0,20.13,12.41,47.59359,-54.27349
2020-12-22 04:54:01+00:00,162.0,15.06,166.0,17.17,12.41,47.59359,-54.27349
2020-12-22 05:04:01+00:00,164.0,17.52,161.0,19.9,12.41,47.59359,-54.27349
2020-12-22 05:14:01+00:00,163.0,17.98,160.0,21.46,12.41,47.59359,-54.27349
2020-12-22 05:24:01+00:00,164.0,19.52,155.0,23.85,12.41,47.59359,-54.27349
2020-12-22 05:34:01+00:00,162.0,18.62,162.0,21.94,12.41,47.59359,-54.27349
2020-12-22 05:44:01+00:00,162.0,17.97,160.0,21.16,12.41,47.59359,-54.27349
2020-12-22 05:54:01+00:00,164.0,17.73,167.0,19.85,12.41,47.59359,-54.27349
2020-12-22 06:04:01+00:00,167.0,18.35,166.0,21.15,12.41,47.59359,-54.27349
2020-12-22 06:14:01+00:00,163.0,19.3,165.0,23.33,12.33,47.59359,-54.27349
2020-12-22 06:24:01+00:00,162.0,20.23,161.0,23.04,12.33,47.59359,-54.27349
2020-12-22 06:34:01+00:00,162.0,18.9,160.0,23.44,12.33,47.59359,-54.27349
2020-12-22 06:44:01+00:00,163.0,17.2,170.0,19.77,12.33,47.59359,-54.27349
2020-12-22 06:54:01+00:00,163.0,19.32,167.0,24.11,12.33,47.59359,-54.27349
2020-12-22 07:04:01+00:00,162.0,17.68,167.0,22.5,12.33,47.59359,-54.27349
2020-12-22 07:14:01+00:00,159.0,17.31,153.0,21.16,12.33,47.59359,-54.27349
2020-12-22 07:24:01+00:00,160.0,18.27,159.0,21.41,12.33,47.59359,-54.27349
2020-12-22 07:34:01+00:00,163.0,16.8,165.0,19.85,12.33,47.59359,-54.27349
2020-12-22 07:44:01+00:00,159.0,16.93,151.0,19.74,12.33,47.59359,-54.27349
2020-12-22 07:54:01+00:00,165.0,15.19,173.0,19.54,12.33,47.59359,-54.27349
2020-12-22 08:04:01+00:00,162.0,17.33,169.0,19.32,12.33,47.59359,-54.27349
2020-12-22 08:14:01+00:00,164.0,16.17,167.0,19.62,12.33,47.59359,-54.27349
2020-12-22 08:24:01+00:00,164.0,16.1,164.0,18.65,12.33,47.59359,-54.27349
2020-12-22 08:34:01+00:00,169.0,18.95,174.0,22.95,12.33,47.59359,-54.27349
2020-12-22 08:44:01+00:00,163.0,17.85,167.0,21.43,12.33,47.59359,-54.27349
2020-12-22 08:54:01+00:00,164.0,18.51,165.0,21.17,12.33,47.59359,-54.27349
2020-12-22 09:04:01+00:00,162.0,17.01,159.0,21.3,12.33,47.59359,-54.27349
2020-12-22 09:14:01+00:00,161.0,19.89,162.0,22.29,12.33,47.59359,-54.27349
2020-12-22 09:24:01+00:00,158.0,19.89,162.0,23.76,12.33,47.59359,-54.27349
2020-12-22 09:34:01+00:00,159.0,16.48,157.0,19.66,12.33,47.59359,-54.27349
2020-12-22 09:44:01+00:00,153.0,22.29,155.0,27.19,12.33,47.59359,-54.27349
2020-12-22 09:54:01+00:00,156.0,17.52,155.0,20.94,12.33,47.59359,-54.27349
2020-12-22 10:04:01+00:00,154.0,19.11,156.0,22.07,12.33,47.59359,-54.27349
2020-12-22 10:14:01+00:00,151.0,18.75,152.0,21.96,12.33,47.59359,-54.27349
2020-12-22 10:24:01+00:00,158.0,18.17,155.0,23.03,12.33,47.59359,-54.27349
2020-12-22 10:34:01+00:00,157.0,19.42,160.0,23.64,12.33,47.59359,-54.27349
2020-12-22 10:44:01+00:00,160.0,20.84,152.0,25.24,12.33,47.59359,-54.27349
2020-12-22 10:54:01+00:00,159.0,19.75,151.0,23.05,12.33,47.59359,-54.27349
2020-12-22 11:04:01+00:00,161.0,21.75,165.0,25.79,12.33,47.59359,-54.27349
2020-12-22 11:14:01+00:00,162.0,25.0,165.0,29.31,12.33,47.59359,-54.27349
2020-12-22 11:24:01+00:00,162.0,21.79,161.0,25.48,12.33,47.59359,-54.27349
2020-12-22 11:34:01+00:00,163.0,20.81,162.0,24.45,12.33,47.59359,-54.27349
2020-12-22 11:44:01+00:00,171.0,20.11,173.0,23.86,12.33,47.59359,-54.27349
2020-12-22 11:54:01+00:00,169.0,18.42,168.0,21.2,12.33,47.59359,-54.27349
2020-12-22 12:04:01+00:00,172.0,22.36,168.0,25.58,12.33,47.59359,-54.27349
2020-12-22 12:14:01+00:00,174.0,19.46,170.0,23.16,12.33,47.59359,-54.27349
2020-12-22 12:24:01+00:00,174.0,21.82,173.0,24.93,12.33,47.59359,-54.27349
2020-12-22 12:34:01+00:00,175.0,22.24,178.0,27.17,12.33,47.59359,-54.27349
2020-12-22 12:44:01+00:00,171.0,22.5,166.0,25.71,12.33,47.59359,-54.27349
2020-12-22 12:54:01+00:00,167.0,17.9,169.0,20.79,12.33,47.59359,-54.27349
2020-12-22 13:04:01+00:00,164.0,20.68,161.0,23.5,12.33,47.59359,-54.27349
2020-12-22 13:14:01+00:00,165.0,20.09,159.0,24.65,12.33,47.59359,-54.27349
2020-12-22 13:24:01+00:00,167.0,21.45,166.0,26.92,12.33,47.59359,-54.27349
2020-12-22 13:34:01+00:00,169.0,23.49,166.0,28.17,12.33,47.59359,-54.27349
2020-12-22 13:44:01+00:00,169.0,19.14,170.0,24.04,12.33,47.59359,-54.27349
2020-12-22 13:54:01+00:00,174.0,19.42,170.0,24.92,12.33,47.59359,-54.27349
2020-12-22 14:04:01+00:00,174.0,18.19,181.0,22.69,12.33,47.59359,-54.27349
2020-12-22 14:14:01+00:00,175.0,21.74,170.0,26.03,12.33,47.59359,-54.27349
2020-12-22 14:24:01+00:00,176.0,24.22,178.0,29.2,12.33,47.59359,-54.27349
2020-12-22 14:34:01+00:00,177.0,20.49,178.0,25.4,12.33,47.59359,-54.27349
2020-12-22 14:44:01+00:00,180.0,23.43,187.0,29.98,12.33,47.59359,-54.27349
2020-12-22 14:54:01+00:00,181.0,23.32,183.0,28.84,12.33,47.59359,-54.27349
2020-12-22 15:04:01+00:00,183.0,23.2,174.0,29.82,12.33,47.59359,-54.27349
2020-12-22 15:14:01+00:00,184.0,23.51,182.0,28.58,12.41,47.59359,-54.27349
2020-12-22 15:24:01+00:00,185.0,24.93,186.0,29.92,12.41,47.59359,-54.27349
2020-12-22 15:34:01+00:00,191.0,20.47,191.0,23.57,12.41,47.59359,-54.27349
2020-12-22 15:44:01+00:00,189.0,20.67,189.0,25.05,12.41,47.59359,-54.27349
2020-12-22 15:54:01+00:00,188.0,19.49,188.0,22.41,12.41,47.59359,-54.27349
2020-12-22 16:04:01+00:00,189.0,19.61,189.0,22.68,12.41,47.59359,-54.27349
2020-12-22 16:14:01+00:00,189.0,19.36,188.0,27.05,12.49,47.59359,-54.27349
2020-12-22 16:24:01+00:00,199.0,20.9,198.0,25.82,12.49,47.59359,-54.27349
2020-12-22 16:34:01+00:00,207.0,19.08,207.0,22.48,12.49,47.59359,-54.27349
2020-12-22 16:44:01+00:00,207.0,17.23,206.0,20.59,12.49,47.59359,-54.27349
2020-12-22 16:54:01+00:00,211.0,16.9,213.0,19.62,12.49,47.59359,-54.27349
2020-12-22 17:04:01+00:00,219.0,15.19,219.0,18.21,12.49,47.59359,-54.27349
2020-12-22 17:14:01+00:00,216.0,16.59,221.0,20.44,12.49,47.59359,-54.27349
2020-12-22 17:24:01+00:00,216.0,15.97,218.0,18.84,12.49,47.59359,-54.27349
2020-12-22 17:34:01+00:00,216.0,17.06,222.0,19.19,12.49,47.59359,-54.27349
2020-12-22 17:44:01+00:00,216.0,15.09,220.0,18.81,12.49,47.59359,-54.27349
2020-12-22 17:54:01+00:00,215.0,16.71,217.0,18.71,12.49,47.59359,-54.27349
2020-12-22 18:04:01+00:00,222.0,18.78,231.0,23.59,12.49,47.59359,-54.27349
2020-12-22 18:14:01+00:00,216.0,16.57,217.0,18.75,12.41,47.59359,-54.27349
2020-12-22 18:24:01+00:00,220.0,15.44,224.0,19.6,12.41,47.59359,-54.27349
2020-12-22 18:34:01+00:00,214.0,17.12,216.0,19.74,12.41,47.59359,-54.27349
2020-12-22 18:44:01+00:00,214.0,18.67,219.0,23.63,12.41,47.59359,-54.27349
2020-12-22 18:54:01+00:00,224.0,18.22,224.0,22.78,12.41,47.59359,-54.27349
2020-12-22 19:04:01+00:00,221.0,20.12,215.0,28.17,12.41,47.59359,-54.27349
2020-12-22 19:14:01+00:00,224.0,17.4,227.0,23.84,12.33,47.59359,-54.27349
2020-12-22 19:24:01+00:00,220.0,18.72,222.0,25.18,12.33,47.59359,-54.27349
2020-12-22 19:34:01+00:00,221.0,17.71,222.0,21.66,12.33,47.59359,-54.27349
2020-12-22 19:44:01+00:00,225.0,16.69,220.0,20.43,12.33,47.59359,-54.27349
2020-12-22 19:54:01+00:00,226.0,19.26,223.0,22.07,12.33,47.59359,-54.27349
2020-12-22 20:04:01+00:00,227.0,15.37,231.0,18.42,12.33,47.59359,-54.27349
2020-12-22 20:14:01+00:00,223.0,16.86,224.0,20.32,12.33,47.59359,-54.27349
2020-12-22 20:24:01+00:00,225.0,19.13,228.0,23.9,12.33,47.59359,-54.27349
2020-12-22 20:34:01+00:00,222.0,19.87,214.0,23.92,12.33,47.59359,-54.27349
2020-12-22 20:44:01+00:00,224.0,16.73,226.0,19.41,12.33,47.59359,-54.27349
2020-12-22 20:54:01+00:00,225.0,18.66,219.0,23.25,12.33,47.59359,-54.27349
2020-12-22 21:04:01+00:00,227.0,15.93,231.0,20.59,12.33,47.59359,-54.27349
2020-12-22 21:14:01+00:00,224.0,16.43,231.0,20.0,12.25,47.59359,-54.27349
2020-12-22 21:24:01+00:00,225.0,17.03,228.0,20.39,12.25,47.59359,-54.27349
2020-12-22 21:34:01+00:00,228.0,17.33,229.0,21.07,12.25,47.59359,-54.27349
2020-12-22 21:44:01+00:00,227.0,14.51,220.0,16.96,12.25,47.59359,-54.27349
2020-12-22 21:54:01+00:00,228.0,13.93,227.0,16.58,12.25,47.59359,-54.27349
2020-12-22 22:04:01+00:00,230.0,13.57,229.0,15.41,12.25,47.59359,-54.27349
2020-12-22 22:14:01+00:00,237.0,15.37,237.0,17.55,12.25,47.59359,-54.27349
2020-12-22 22:24:01+00:00,235.0,13.85,245.0,17.2,12.25,47.59359,-54.27349
2020-12-22 22:34:01+00:00,232.0,14.76,233.0,17.87,12.25,47.59359,-54.27349
2020-12-22 22:44:01+00:00,228.0,14.67,208.0,18.8,12.25,47.59359,-54.27349
2020-12-22 22:54:01+00:00,224.0,15.49,230.0,18.32,12.25,47.59359,-54.27349
2020-12-22 23:04:01+00:00,228.0,15.18,227.0,17.56,12.25,47.59359,-54.27349
2020-12-22 23:14:01+00:00,227.0,15.65,219.0,19.34,12.33,47.59359,-54.27349
2020-12-22 23:24:01+00:00,220.0,13.67,214.0,17.72,12.33,47.59359,-54.27349
2020-12-22 23:34:01+00:00,232.0,14.1,233.0,19.14,12.33,47.59359,-54.27349
2020-12-22 23:44:01+00:00,226.0,13.37,231.0,16.61,12.33,47.59359,-54.27349
2020-12-22 23:54:01+00:00,231.0,12.92,225.0,16.02,12.33,47.59359,-54.27349
